Regional Weather Roundup
Issued by NWS Grand Forks, ND

Home | Current Version | Previous Version | Graphics & Text | Print | Product List | Glossary On
Versions: 1 2 3 4 5 6 7 8 9 10 11 12 13 14 15 16 17 18 19 20 21 22 23 24 25 26 27 28 29 30 31 32 33 34 35 36 37 38 39 40 41 42 43 44 45 46 47 48 49 50
000
ASUS43 KFGF 230131
RWRFGF
PRAIRIE TO PINES  WEATHER ROUNDUP
NATIONAL WEATHER SERVICE EASTERN NORTH DAKOTA/GRAND FORKS ND
700 PM CST SUN JAN 22 2017

 **SATELLITE DATA USED TO AUGMENT SKY COVER AT AUTOMATED STATIONS**
 *****  WEATHER ACROSS EASTERN NORTH DAKOTA  *****

CITY           SKY/WX    TMP DP  RH WIND       PRES   REMARKS
GRAND FORKS    CLOUDY    33  29  85 SW5       29.76S
GRAND FRKS AFB CLOUDY    33  30  89 W6        29.76S
DEVILS LAKE    CLOUDY    30  27  86 W13       29.77R WCI  20
FARGO          CLOUDY    34  31  88 W6        29.79R FOG
WAHPETON ARPT  CLOUDY    32  30  93 NW9       29.80R WCI  24
$$

 ***** WEATHER ACROSS CENTRAL AND WESTERN NORTH DAKOTA  *****

CITY           SKY/WX    TMP DP  RH WIND       PRES   REMARKS
BISMARCK       CLOUDY    33  27  78 NW8       29.84S
MINOT          CLOUDY    31  28  89 W13       29.78S WCI  21
JAMESTOWN      CLOUDY    33  28  81 NW18      29.79R WCI  22
MINOT AFB      CLOUDY    30  28  93 W9        29.77S WCI  22
GARRISON         N/A     30  25  81 W13       29.80R WCI  20
WILLISTON      CLOUDY    30  24  78 W9        29.83R WCI  22
DICKINSON      CLOUDY    26  23  88 NW17      29.80R WCI  13
HETTINGER      CLOUDY    25  22  88 W14       29.84S WCI  13
$$

 *****  OTHER AIRPORT OBSERVATIONS IN OUR AREA  *****

CITY           SKY/WX    TMP DP  RH WIND       PRES   REMARKS
WALHALLA       NOT AVBL
GRAFTON AIRPOR CLOUDY    34  30  86 NW9       29.77S
VALLEY CITY AR CLOUDY    32  32 100 NW12      29.80R WCI  23
CANDO          NOT AVBL
CAVALIER APRT  CLOUDY    32  28  86 W7        29.75S
GWINNER        CLOUDY    34  32  93 W8        29.81R
SHEYENNE NWR     N/A     32  30  93 NW5       29.95S
ROLLA            N/A    N/A N/A N/A MISG        N/A
 ***** THE ABOVE OBSERVATIONS ARE NON NWS ARE NOT QUALITY
       CONTROLLED AND MAY MIS-REPORT RAIN FOR SNOW...
$$

  *****  WEATHER ACROSS NORTHERN MINNESOTA  *****

CITY           SKY/WX    TMP DP  RH WIND       PRES   REMARKS
FLAG ISLAND    CLOUDY    32  32 100 CALM      29.73R FOG
WARROAD        FOG       34  28  80 SE3       29.74S VSB 1/2
ROSEAU         HAZE      36  30  80 CALM      29.74R VSB 1/2
HALLOCK        CLOUDY    34  32  93 CALM      29.74S FOG
THF RVR FALLS  LGT SNOW  30  30 100 SW6       29.76S FOG     WCI  24
BAUDETTE       FOG       34  33  96 CALM      29.73R VSB 3/4
WASKISH        FOG       34  34 100 W3        29.74R VSB 3/4
CROOKSTON      CLOUDY    32  30  93 W5        29.78R
$$
  *****  WEATHER ACROSS CENTRAL AND WEST MINNESOTA  *****

CITY           SKY/WX    TMP DP  RH WIND       PRES   REMARKS
FOSSTON        FOG       30  30 100 W5        29.76R VSB 1/4
BEMIDJI        CLOUDY    33  33 100 W5        29.73S FOG
PARK RAPIDS    CLOUDY    33  30  88 W9        29.74R FOG
ELBOW LAKE     CLOUDY    31  31 100 NW7       29.79R FOG     WCI  25
WADENA         CLOUDY    30  30 100 W3        29.76R FOG
DETROIT LAKES  CLOUDY    32  32 100 CALM      29.78R FOG
MOORHEAD       CLOUDY    30  30 100 NW7       29.80R FOG     WCI  23
FERGUS FALLS   CLOUDY    30  30 100 W9        29.82S FOG     WCI  22
MORRIS MN      MOCLDY    34  32  93 NW8       29.79R FOG
STAPLES        FOG       32  32 100 W7        29.76R VSB 3/4
$$
  *****  WEATHER ELSEWHERE ACROSS MINNESOTA  *****

CITY           SKY/WX    TMP DP  RH WIND       PRES   REMARKS
DULUTH         CLOUDY    35  34  96 N5        29.70S
INTRNTL FALLS  CLOUDY    35  34  96 NW3       29.72S FOG
ELY            SNOW      34  34 100 CALM      29.71R VSB 1/4
CLOQUET        CLOUDY    36  34  93 NW3       29.71S FOG
WHEATON        CLOUDY    39  39 100 W7        29.82S FOG
BRAINERD       CLOUDY    35  34  96 W6        29.74R FOG
HIBBING        CLOUDY    32  32 100 CALM      29.71S FOG
ALEXANDRIA     CLOUDY    31  31 100 W8        29.78R WCI  23
SAINT CLOUD    CLOUDY    34  34 100 W10       29.76R
MINNEAPOLIS    CLOUDY    37  34  89 W6        29.76S
$$

  *****  WEATHER ACROSS SOUTH DAKOTA  *****

CITY           SKY/WX    TMP DP  RH WIND       PRES   REMARKS
SIOUX FALLS    CLOUDY    31  28  89 NW13G21   29.84S WCI  21
BROOKINGS      CLOUDY    29  27  92 NW13      29.81S WCI  19
WATERTOWN      CLOUDY    29  27  92 NW9       29.80R WCI  20
HURON          CLOUDY    29  27  92 W12       29.87R WCI  19
SISSETON         N/A     33  31  92 NW12      29.79S WCI  24
ABERDEEN       CLOUDY    31  26  82 W9        29.85R WCI  23
MITCHELL       CLOUDY    31  27  85 W10       29.89R WCI  22
PIERRE         CLOUDY    28  25  88 W7        29.89R WCI  21
MOBRIDGE       CLOUDY    31  25  78 NW10      29.84S WCI  22
RAPID CITY     FAIR      27  22  81 CALM      29.84R
$$

  *****  SOME WEATHER IN NEARBY STATES *****

CITY           SKY/WX    TMP DP  RH WIND       PRES   REMARKS
GLASGOW MT     CLOUDY    30  25  81 SW6       29.81S WCI  24
GREAT FALLS MT FOG       24  22  91 NE15      29.70F VSB 1/4 WCI  11
CHEYENNE WY    FAIR      28   9  44 VRB3      29.85R
SCOTTSBLUFF NE FAIR      33  19  56 W6        29.88R
OMAHA NE       FAIR      30  26  85 NW7       29.87R WCI  23
DES MOINES IA  CLOUDY    38  36  92 N12       29.79R
DAVENPORT IA   FAIR      34  32  92 NW7       29.70R FOG
CHICAGO IL     CLOUDY    41  38  89 N7        29.64F
EAU CLAIRE WI  CLOUDY    36  34  92 CALM      29.73R
LA CROSSE WI   CLOUDY    39  34  82 NW6       29.74R
$$

  *****  SOME NATIONAL WEATHER *****

CITY           SKY/WX    TMP DP  RH WIND       PRES   REMARKS
LA GUARDIA NY  CLOUDY    49  42  77 NE16      29.76S
RALEIGH NC     CLOUDY    54  52  93 NE8       29.47F FOG
ATLANTA GA     CLOUDY    53  48  83 SW15G28   29.25R
NEW ORLEANS LA FAIR      61  43  51 W14       29.52R
OKLAHOMA CITY  FAIR      49  33  54 NW13      29.88R
ALBUQUERQUE NM MOCLDY    42  21  43 CALM      30.12R
SALT LAKE CITY CLOUDY    35  30  82 S22G30    29.76F WCI  23
LOS ANGELES CA LGT RAIN  52  52 100 E9        29.89S FOG
BOISE ID       FAIR      38  31  76 SE12      29.63F
SEATTLE WA     MOCLDY    44  37  76 E9        29.57R
$$

*** WEATHER ACROSS MANITOBA...SASKATCHEWAN AND ONTARIO ***
                ***ONTARIO***

CITY           SKY/WX    TMP DP  RH WIND       PRES   REMARKS
GERALDTON      LGT SNOW  30  30 100 NE7       29.71S WCI  23
THUNDER BAY    CLOUDY    32  32 100 SW5       29.70S
SIOUX LOOKOUT  DRIZZLE   32  30  93 E3        29.73R FOG
TORONTO        CLOUDY    39  34  81 E16       29.75R
BIG TROUT LK   FLURRIES  28  27  93 E6        29.84S WCI  22
PICKLE LAKE    FLURRIES  28  27  93 E3        29.76S
DRYDEN         FOG       34  34 100 NE2       29.72R VSB 5/8
KENORA         FOG       34  34 100 CALM      29.71F VSB 1/4
$$
                *** MANITOBA***

CITY           SKY/WX    TMP DP  RH WIND       PRES   REMARKS
BRANDON        CLOUDY    28  25  86 W9        29.72S WCI  20
DAUPHIN        FLURRIES  32  28  86 W14       29.71R WCI  22
ISLAND LAKE    LGT SNOW  32  32 100 E2        29.77F FOG
PILOT MOUND      N/A     28  25  86 W6          N/A  WCI  22
THE PAS        LGT SNOW  32  30  93 NE3       29.76S
THOMPSON       FLURRIES  27  25  93 NE8       29.84S WCI  18
WINNIPEG       LGT SNOW  32  32 100 SW3       29.73S FOG
LYNN LAKE      FLURRIES  16  12  86 N12G17    29.92R WCI   3
CHURCHILL      CLOUDY    19  19 100 N15       29.99S FOG     WCI   5
GILLAM         LGT SNOW  25  23  93 NE6       29.88S WCI  18
$$
                ***SASKATCHEWAN***

CITY           SKY/WX    TMP DP  RH WIND       PRES   REMARKS
ESTEVAN        FLURRIES  27  25  93 W12       29.77S WCI  16
KINDERSLEY     FLURRIES  18  14  86 NW9       29.82S WCI   6
LLOYDMINSTER   CLOUDY    16  14  93 N10       29.87R WCI   3
PRINCE ALBERT  LGT SNOW  21  19  93 NW10      29.80S WCI  10
REGINA         FLURRIES  23  21  93 NW13      29.78S WCI  11
YORKTON        CLOUDY    28  27  93 NW15      29.70S WCI  17
N. BATTLEFORD  FLURRIES  16  16 100 NW7       29.87S WCI   6
LA RONGE       FLURRIES  19  16  86 N10       29.88S WCI   8
SASKATOON      FLURRIES  18  14  86 NW8       29.83S WCI   7
SWIFT CURRENT  CLOUDY    19  19 100 NW9       29.77S WCI   9
$$
NOTE: THESE ARE AUTOMATED STATIONS WITH LIMITED QUALITY CONTROL
      "FAIR" INDICATES FEW OR NO CLOUDS BELOW 12,000 FEET WITH NO
      SIGNIFICANT WEATHER AND/OR OBSTRUCTIONS TO VISIBILITY.
      SKY/WX - SKY CONDITION AND SIGNIFICANT WEATHER.
      TMP - AIR TEMPERATURE.    DP   - DEWPOINT TEMPERATURE.
      RH  - RELATIVE HUMIDITY.  PRES - PRESSURE.
      HX  - HEAT INDEX.         WCI  - WIND CHILL INDEX.
$




USA.gov is the U.S. government's official web portal to all federal, state and local government web resources and services.